Wind_Speed
14 18 14 16 13 13 14 23 23 29 24 21 17 19 15 11 4 4 6 8 8 7 8 7 6 7 6 4 4 6 6 4
14 17 14 20 20 17 23 27 24 14 15 17 19 24 15 13 6 6 6 7 8 7 6 6 9 9 5 5 5 4 6 6
16 27 18 15 25 25 18 27 17 26 17 9 12 10 19 14 7 8 9 9 8 8 7 7 6 7 5 5 7 7 6 5
20 18 21 16 26 26 14 12 23 30 25 19 6 9 14 14 16 10 11 13 12 11 9 3 9 4 6 5 5 4 3 4
21 18 16 18 15 17 22 22 36 36 26 8 9 11 16 29 11 13 11 13 12 11 7 6 2 4 2 2 1 3 3 6
21 19 25 24 17 13 22 20 28 35 25 21 24 13 14 17 16 17 10 13 12 11 13 12 9 6 5 7 8 5 4 5
26 21 24 30 27 23 21 17 19 24 28 27 25 22 23 26 21 18 19 16 8 11 16 12 7 11 11 11 11 10 9 10
29 27 25 22 28 17 20 23 24 18 26 22 19 23 27 38 29 31 24 17 11 16 13 8 14 14 13 14 13 14 14 13
27 28 12 14 7 12 8 21 27 33 22 25 27 23 15 22 26 21 21 16 17 14 14 15 16 15 15 18 17 17 17 17
25 27 29 26 15 23 20 9 28 34 28 23 20 13 25 21 13 25 21 13 14 14 17 17 20 20 20 19 18 20 19 19
27 27 21 17 21 25 29 32 29 29 33 35 31 25 21 3 12 15 17 14 15 15 16 16 20 22 22 21 21 20 21 22
24 23 24 24 27 30 30 34 40 35 34 37 16 18 18 7 22 23 20 12 14 20 19 19 21 23 24 22 21 25 25 26
27 29 29 32 32 32 35 40 39 38 39 19 25 25 26 22 23 18 15 16 21 25 23 23 25 24 25 24 26 27 27 29
35 35 36 34 34 35 36 39 43 37 35 35 23 12 21 24 26 28 26 25 26 28 30 27 26 28 28 28 29 30 32 32
35 39 37 30 29 28 36 40 42 36 31 33 27 25 28 31 33 32 27 22 24 25 26 26 29 30 28 32 32 33 34 36
24 20 22 30 29 28 16 22 32 43 42 36 26 30 29 29 31 32 28 26 26 25 24 25 28 29 31 33 34 36 38 38
19 22 19 27 18 13 17 21 22 18 20 29 30 27 27 29 29 29 29 29 29 31 30 31 31 32 32 33 34 35 37 37
24 26 28 35 21 25 27 24 20 20 25 31 29 31 30 33 34 35 35 35 35 33 31 31 31 31 32 33 34 35 35 36
25 26 27 29 28 30 31 28 27 26 25 30 33 32 33 33 33 33 33 34 34 34 34 33 32 32 32 34 34 35 36 36
Wind_Direction
232 245 246 219 214 238 232 262 263 276 288 256 236 239 220 222 137 111 124 128 123 127 120 121 82 81 90 115 151 150 99 62
288 301 245 217 214 233 241 257 272 296 309 313 294 221 208 172 174 182 166 147 144 136 123 140 139 124 124 94 77 90 67 32
211 250 274 228 208 236 258 270 316 321 317 350 38 172 174 159 167 199 180 166 159 147 152 174 138 119 104 55 53 65 51 50
194 224 276 291 243 238 273 319 290 278 292 319 319 204 203 165 162 216 188 171 167 155 171 141 117 146 106 67 28 40 36 53
196 204 242 266 219 226 253 259 282 290 307 314 321 292 248 224 141 169 204 184 172 159 184 245 264 186 140 202 42 22 21 13
207 210 234 237 238 230 224 251 275 282 316 313 301 316 255 259 162 168 181 199 182 180 208 220 235 251 274 280 272 273 295 304
199 225 246 237 240 223 233 260 247 260 279 284 295 307 288 253 249 184 186 217 207 225 229 214 251 268 263 265 273 274 270 280
206 215 237 235 231 231 236 250 262 267 285 272 299 295 287 292 289 225 200 214 224 249 248 270 258 266 276 282 285 292 291 290
219 224 228 267 216 243 255 267 274 267 274 282 270 269 335 308 270 232 196 212 232 248 256 266 276 277 279 279 287 289 290 293
223 208 209 219 225 254 251 236 263 271 278 302 294 278 298 313 278 261 205 216 237 245 255 271 285 286 280 281 285 286 289 288
221 218 210 223 218 236 254 263 250 267 270 298 277 281 324 47 298 269 193 238 225 246 264 268 271 272 280 289 292 292 289 291
224 232 206 222 226 232 245 260 263 267 258 271 262 299 290 311 286 260 231 262 283 287 278 266 266 273 276 277 280 281 289 291
215 223 225 219 231 237 235 248 258 267 269 310 292 273 261 268 279 287 277 287 285 296 287 274 272 275 278 278 279 282 289 293
220 226 230 238 238 242 251 252 252 252 258 268 249 253 273 275 285 289 289 275 273 278 280 278 277 281 279 283 284 285 291 293
230 235 248 248 264 262 255 255 264 277 284 251 283 278 272 275 281 282 294 291 270 267 267 271 275 278 279 281 284 288 290 292
227 248 251 261 263 266 254 264 254 260 263 251 264 276 266 270 273 272 280 281 284 282 285 286 283 283 281 281 285 287 289 289
255 272 257 273 244 274 249 235 259 269 269 253 254 262 274 279 283 284 284 285 284 282 282 282 282 282 283 285 286 286 286 289
279 280 269 273 277 275 285 283 276 257 252 264 260 262 264 267 271 276 282 287 289 287 284 282 282 283 283 283 283 285 287 288
275 278 283 281 281 273 270 267 270 266 259 259 265 267 268 270 271 273 275 277 279 282 284 285 285 285 285 284 283 283 286 288
Height
5881 5882 5884 5888 5889 5891 5893 5893 5892 5889 5892 5890 5891 5891 5893 5896 5895 5896 5897 5897 5899 5901 5901 5901 5900 5901 5900 5900 5900 5902 5903 5905
5879 5881 5881 5883 5886 5886 5888 5890 5888 5886 5887 5889 5885 5889 5894 5892 5893 5896 5896 5896 5897 5899 5899 5897 5900 5902 5898 5901 5905 5909 5900 5905
5874 5877 5879 5882 5880 5882 5885 5886 5884 5883 5886 5888 5881 5886 5887 5885 5891 5895 5895 5895 5897 5898 5897 5897 5901 5904 5900 5900 5902 5902 5906 5908
5870 5875 5877 5877 5879 5880 5882 5884 5882 5880 5882 5885 5883 5880 5880 5882 5881 5894 5895 5895 5896 5896 5895 5896 5898 5905 5899 5902 5903 5904 5905 5905
5866 5871 5873 5874 5875 5878 5882 5885 5872 5873 5877 5879 5882 5882 5883 5883 5880 5886 5894 5894 5893 5895 5895 5895 5896 5893 5902 5903 5904 5904 5904 5904
5865 5867 5869 5870 5871 5873 5878 5879 5877 5869 5872 5875 5879 5883 5879 5880 5878 5884 5889 5891 5892 5892 5893 5893 5894 5896 5898 5899 5901 5901 5900 5901
5859 5861 5864 5866 5869 5870 5874 5877 5875 5875 5870 5872 5872 5878 5879 5882 5880 5882 5881 5882 5888 5888 5889 5889 5893 5896 5897 5897 5897 5897 5897 5897
5854 5856 5859 5860 5864 5868 5870 5865 5864 5861 5864 5869 5874 5875 5876 5874 5875 5877 5872 5879 5883 5885 5885 5886 5891 5892 5893 5893 5892 5893 5892 5892
5849 5852 5855 5857 5863 5861 5864 5861 5860 5862 5863 5864 5865 5868 5870 5867 5865 5862 5868 5872 5878 5882 5883 5886 5888 5888 5888 5888 5889 5888 5888 5887
5845 5849 5851 5854 5858 5856 5850 5847 5853 5851 5854 5855 5856 5858 5862 5863 5861 5864 5860 5868 5873 5878 5881 5881 5883 5883 5883 5882 5883 5882 5882 5882
5838 5842 5849 5849 5853 5854 5849 5846 5845 5846 5849 5849 5849 5857 5857 5858 5856 5856 5837 5862 5861 5872 5874 5875 5877 5877 5876 5876 5876 5876 5874 5874
5836 5838 5841 5843 5846 5850 5846 5840 5839 5843 5845 5844 5847 5851 5854 5855 5861 5859 5846 5855 5863 5866 5866 5868 5868 5870 5869 5870 5870 5868 5869 5868
5828 5829 5831 5834 5837 5842 5842 5841 5836 5838 5827 5827 5839 5846 5854 5855 5850 5835 5829 5848 5852 5855 5857 5858 5860 5861 5861 5862 5861 5861 5860 5861
5817 5820 5824 5827 5832 5833 5835 5835 5833 5835 5835 5834 5832 5831 5834 5842 5842 5844 5845 5844 5845 5848 5850 5850 5851 5852 5854 5854 5853 5853 5852 5852
5813 5814 5818 5823 5826 5827 5826 5827 5824 5828 5828 5825 5825 5831 5832 5835 5837 5837 5836 5838 5840 5842 5844 5845 5844 5843 5845 5845 5844 5844 5843 5843
5806 5809 5815 5815 5816 5816 5816 5816 5818 5827 5826 5822 5825 5825 5828 5829 5829 5832 5833 5832 5833 5834 5835 5835 5835 5836 5837 5836 5834 5834 5833 5833
5798 5798 5802 5803 5806 5809 5809 5811 5811 5810 5812 5817 5817 5820 5819 5819 5819 5820 5821 5821 5822 5825 5827 5827 5827 5827 5825 5824 5824 5823 5822 5821
5792 5790 5793 5793 5798 5799 5798 5800 5801 5802 5803 5804 5809 5812 5812 5813 5814 5814 5814 5813 5813 5815 5816 5817 5816 5816 5816 5815 5814 5812 5811 5811
5788 5789 5787 5785 5787 5789 5791 5794 5794 5793 5794 5795 5797 5800 5802 5803 5805 5805 5805 5805 5806 5806 5806 5806 5806 5805 5804 5804 5803 5802 5801 5800